owner,sensor,date,latitude,longitude,vertical_datum,wind_speed,wind_to_direction,wind_speed_of_gust,qcFlag 
TCOON,ioos:station:TCOON:006:1,2013-05-01T00:00:00Z,27.8217,-97.2040,0.0,5.1,110.0,7.2,'11111222,11111222,11111222' 
TCOON,ioos:station:TCOON:006:1,2013-05-01T01:00:00Z,27.8217,-97.2040,0.0,6.0,109.0,7.0,'11111222,11111222,11111222' 
TCOON,ioos:station:TCOON:006:1,2013-05-01T02:00:00Z,27.8217,-97.2040,0.0,4.6,120.0,6.9,'11111222,11111222,11111222' 
TCOON,ioos:station:TCOON:006:1,2013-05-01T03:00:00Z,27.8217,-97.2040,0.0,5.0,109.0,7.3,'11111222,11111222,11111222' 
TCOON,ioos:station:TCOON:006:1,2013-05-01T04:00:00Z,27.8217,-97.2040,0.0,4.8,123.0,6.6,'11111222,11111222,11111222' 
TCOON,ioos:station:TCOON:006:1,2013-05-01T05:00:00Z,27.8217,-97.2040,0.0,4.2,144.0,6.1,'11111222,11111222,11111222' 
TCOON,ioos:station:TCOON:006:1,2013-05-01T06:00:00Z,27.8217,-97.2040,0.0,3.6,143.0,5.5,'11111222,11111222,11111222' 
TCOON,ioos:station:TCOON:006:1,2013-05-01T07:00:00Z,27.8217,-97.2040,0.0,3.2,153.0,3.9,'11111222,11111222,11111222' 
TCOON,ioos:station:TCOON:006:1,2013-05-01T08:00:00Z,27.8217,-97.2040,0.0,2.5,143.0,4.2,'11111222,11111222,11111222' 
TCOON,ioos:station:TCOON:006:1,2013-05-01T09:00:00Z,27.8217,-97.2040,0.0,1.7,159.0,2.6,'11111222,11111222,11111222' 
TCOON,ioos:station:TCOON:006:1,2013-05-01T10:00:00Z,27.8217,-97.2040,0.0,0.7,150.0,1.8,'11111222,11111222,11111222' 
TCOON,ioos:station:TCOON:006:1,2013-05-01T11:00:00Z,27.8217,-97.2040,0.0,1.3,93.0,2.3,'11111222,11111222,11111222' 
TCOON,ioos:station:TCOON:006:1,2013-05-01T12:00:00Z,27.8217,-97.2040,0.0,1.4,171.0,3.3,'11111222,11111222,11111222' 
TCOON,ioos:station:TCOON:006:1,2013-05-01T13:00:00Z,27.8217,-97.2040,0.0,3.5,171.0,4.1,'11111222,11111222,11111222' 
TCOON,ioos:station:TCOON:006:1,2013-05-01T14:00:00Z,27.8217,-97.2040,0.0,2.1,170.0,2.7,'11111222,11111222,11111222' 
TCOON,ioos:station:TCOON:006:1,2013-05-01T15:00:00Z,27.8217,-97.2040,0.0,2.9,104.0,4.6,'11111222,11111222,11111222' 
TCOON,ioos:station:TCOON:006:1,2013-05-01T16:00:00Z,27.8217,-97.2040,0.0,3.9,100.0,5.8,'11111222,11111222,11111222' 
TCOON,ioos:station:TCOON:006:1,2013-05-01T17:00:00Z,27.8217,-97.2040,0.0,4.3,106.0,6.5,'11111222,11111222,11111222' 
TCOON,ioos:station:TCOON:006:1,2013-05-01T18:00:00Z,27.8217,-97.2040,0.0,4.1,85.0,5.9,'11111222,11111222,11111222' 
TCOON,ioos:station:TCOON:006:1,2013-05-01T19:00:00Z,27.8217,-97.2040,0.0,3.8,98.0,6.2,'11111222,11111222,11111222' 
TCOON,ioos:station:TCOON:006:1,2013-05-01T20:00:00Z,27.8217,-97.2040,0.0,4.3,86.0,6.2,'11111222,11111222,11111222' 
TCOON,ioos:station:TCOON:006:1,2013-05-01T21:00:00Z,27.8217,-97.2040,0.0,4.6,88.0,6.5,'11111222,11111222,11111222' 
TCOON,ioos:station:TCOON:006:1,2013-05-01T22:00:00Z,27.8217,-97.2040,0.0,4.0,84.0,5.3,'11111222,11111222,11111222' 
TCOON,ioos:station:TCOON:006:1,2013-05-01T23:00:00Z,27.8217,-97.2040,0.0,3.6,77.0,5.0,'11111222,11111222,11111222' 
TCOON,ioos:station:TCOON:006:1,2013-05-02T00:00:00Z,27.8217,-97.2040,0.0,3.7,75.0,5.0,'11111222,11111222,11111222' 
TCOON,ioos:station:TCOON:006:1,2013-05-02T01:00:00Z,27.8217,-97.2040,0.0,4.7,82.0,6.4,'11111222,11111222,11111222' 
TCOON,ioos:station:TCOON:006:1,2013-05-02T02:00:00Z,27.8217,-97.2040,0.0,4.9,86.0,6.5,'11111222,11111222,11111222' 
TCOON,ioos:station:TCOON:006:1,2013-05-02T03:00:00Z,27.8217,-97.2040,0.0,3.9,92.0,5.5,'11111222,11111222,11111222' 
TCOON,ioos:station:TCOON:006:1,2013-05-02T04:00:00Z,27.8217,-97.2040,0.0,2.2,108.0,3.0,'11111222,11111222,11111222' 
TCOON,ioos:station:TCOON:006:1,2013-05-02T05:00:00Z,27.8217,-97.2040,0.0,2.9,108.0,4.1,'11111222,11111222,11111222' 
TCOON,ioos:station:TCOON:006:1,2013-05-02T06:00:00Z,27.8217,-97.2040,0.0,1.8,98.0,3.3,'11111222,11111222,11111222' 
TCOON,ioos:station:TCOON:006:1,2013-05-02T07:00:00Z,27.8217,-97.2040,0.0,0.7,357.0,1.3,'11111222,11111222,11111222' 
TCOON,ioos:station:TCOON:006:1,2013-05-02T08:00:00Z,27.8217,-97.2040,0.0,1.4,346.0,2.2,'11111222,11111222,11111222' 
TCOON,ioos:station:TCOON:006:1,2013-05-02T09:00:00Z,27.8217,-97.2040,0.0,1.7,21.0,3.6,'11111222,11111222,11111222' 
TCOON,ioos:station:TCOON:006:1,2013-05-02T10:00:00Z,27.8217,-97.2040,0.0,6.9,76.0,8.9,'11111222,11111222,11111222' 
TCOON,ioos:station:TCOON:006:1,2013-05-02T11:00:00Z,27.8217,-97.2040,0.0,3.0,158.0,3.7,'11111222,11111222,11111222' 
TCOON,ioos:station:TCOON:006:1,2013-05-02T12:00:00Z,27.8217,-97.2040,0.0,2.5,189.0,3.1,'11111222,11111222,11111222' 
TCOON,ioos:station:TCOON:006:1,2013-05-02T13:00:00Z,27.8217,-97.2040,0.0,3.5,327.0,5.5,'11111222,11111222,11111222' 
TCOON,ioos:station:TCOON:006:1,2013-05-02T14:00:00Z,27.8217,-97.2040,0.0,3.7,292.0,4.9,'11111222,11111222,11111222' 
TCOON,ioos:station:TCOON:006:1,2013-05-02T15:00:00Z,27.8217,-97.2040,0.0,6.8,293.0,9.3,'11111222,11111222,11111222' 
TCOON,ioos:station:TCOON:006:1,2013-05-02T16:00:00Z,27.8217,-97.2040,0.0,6.5,293.0,8.9,'11111222,11111222,11111222' 
TCOON,ioos:station:TCOON:006:1,2013-05-02T17:00:00Z,27.8217,-97.2040,0.0,6.8,324.0,14.7,'11111222,11111222,11111222' 
TCOON,ioos:station:TCOON:006:1,2013-05-02T18:00:00Z,27.8217,-97.2040,0.0,5.2,338.0,11.1,'11111222,11111222,11111222' 
TCOON,ioos:station:TCOON:006:1,2013-05-02T19:00:00Z,27.8217,-97.2040,0.0,5.5,344.0,11.3,'11111222,11111222,11111222' 
TCOON,ioos:station:TCOON:006:1,2013-05-02T20:00:00Z,27.8217,-97.2040,0.0,5.6,332.0,8.4,'11111222,11111222,11111222' 
TCOON,ioos:station:TCOON:006:1,2013-05-02T21:00:00Z,27.8217,-97.2040,0.0,4.7,334.0,8.8,'11111222,11111222,11111222' 
TCOON,ioos:station:TCOON:006:1,2013-05-02T22:00:00Z,27.8217,-97.2040,0.0,4.1,337.0,7.3,'11111222,11111222,11111222' 
TCOON,ioos:station:TCOON:006:1,2013-05-02T23:00:00Z,27.8217,-97.2040,0.0,6.8,324.0,10.1,'11111222,11111222,11111222' 
TCOON,ioos:station:TCOON:006:1,2013-05-03T00:00:00Z,27.8217,-97.2040,0.0,5.4,334.0,9.6,'11111222,11111222,11111222' 
TCOON,ioos:station:TCOON:006:1,2013-05-03T01:00:00Z,27.8217,-97.2040,0.0,5.9,329.0,10.7,'11111222,11111222,11111222' 
TCOON,ioos:station:TCOON:006:1,2013-05-03T02:00:00Z,27.8217,-97.2040,0.0,4.2,329.0,8.3,'11111222,11111222,11111222' 
TCOON,ioos:station:TCOON:006:1,2013-05-03T03:00:00Z,27.8217,-97.2040,0.0,6.2,324.0,10.6,'11111222,11111222,11111222' 
TCOON,ioos:station:TCOON:006:1,2013-05-03T04:00:00Z,27.8217,-97.2040,0.0,7.0,323.0,10.8,'11111222,11111222,11111222' 
TCOON,ioos:station:TCOON:006:1,2013-05-03T05:00:00Z,27.8217,-97.2040,0.0,7.2,321.0,11.9,'11111222,11111222,11111222' 
TCOON,ioos:station:TCOON:006:1,2013-05-03T06:00:00Z,27.8217,-97.2040,0.0,7.1,322.0,10.4,'11111222,11111222,11111222' 
TCOON,ioos:station:TCOON:006:1,2013-05-03T07:00:00Z,27.8217,-97.2040,0.0,6.6,318.0,10.3,'11111222,11111222,11111222' 
TCOON,ioos:station:TCOON:006:1,2013-05-03T08:00:00Z,27.8217,-97.2040,0.0,5.7,322.0,9.4,'11111222,11111222,11111222' 
TCOON,ioos:station:TCOON:006:1,2013-05-03T09:00:00Z,27.8217,-97.2040,0.0,5.1,323.0,8.6,'11111222,11111222,11111222' 
TCOON,ioos:station:TCOON:006:1,2013-05-03T10:00:00Z,27.8217,-97.2040,0.0,7.1,321.0,10.1,'11111222,11111222,11111222' 
TCOON,ioos:station:TCOON:006:1,2013-05-03T11:00:00Z,27.8217,-97.2040,0.0,6.1,322.0,9.8,'11111222,11111222,11111222' 
TCOON,ioos:station:TCOON:006:1,2013-05-03T12:00:00Z,27.8217,-97.2040,0.0,8.3,321.0,11.5,'11111222,11111222,11111222' 
TCOON,ioos:station:TCOON:006:1,2013-05-03T13:00:00Z,27.8217,-97.2040,0.0,5.9,328.0,10.9,'11111222,11111222,11111222' 
TCOON,ioos:station:TCOON:006:1,2013-05-03T14:00:00Z,27.8217,-97.2040,0.0,8.3,327.0,12.7,'11111222,11111222,11111222' 
TCOON,ioos:station:TCOON:006:1,2013-05-03T15:00:00Z,27.8217,-97.2040,0.0,6.5,322.0,12.5,'11111222,11111222,11111222' 
TCOON,ioos:station:TCOON:006:1,2013-05-03T16:00:00Z,27.8217,-97.2040,0.0,6.1,318.0,10.4,'11111222,11111222,11111222' 
TCOON,ioos:station:TCOON:006:1,2013-05-03T17:00:00Z,27.8217,-97.2040,0.0,4.1,341.0,9.5,'11111222,11111222,11111222' 
TCOON,ioos:station:TCOON:006:1,2013-05-03T18:00:00Z,27.8217,-97.2040,0.0,4.7,327.0,8.1,'11111222,11111222,11111222' 
TCOON,ioos:station:TCOON:006:1,2013-05-03T19:00:00Z,27.8217,-97.2040,0.0,2.7,346.0,9.8,'11111222,11111222,11111222' 
TCOON,ioos:station:TCOON:006:1,2013-05-03T20:00:00Z,27.8217,-97.2040,0.0,4.5,317.0,8.1,'11111222,11111222,11111222' 
TCOON,ioos:station:TCOON:006:1,2013-05-03T21:00:00Z,27.8217,-97.2040,0.0,3.2,330.0,7.5,'11111222,11111222,11111222' 
TCOON,ioos:station:TCOON:006:1,2013-05-03T22:00:00Z,27.8217,-97.2040,0.0,2.9,333.0,5.0,'11111222,11111222,11111222' 
TCOON,ioos:station:TCOON:006:1,2013-05-03T23:00:00Z,27.8217,-97.2040,0.0,2.3,343.0,4.6,'11111222,11111222,11111222' 
TCOON,ioos:station:TCOON:006:1,2013-05-04T00:00:00Z,27.8217,-97.2040,0.0,1.1,337.0,2.9,'11111222,11111222,11111222' 
TCOON,ioos:station:TCOON:006:1,2013-05-04T01:00:00Z,27.8217,-97.2040,0.0,0.9,28.0,1.6,'11111222,11111222,11111222' 
TCOON,ioos:station:TCOON:006:1,2013-05-04T02:00:00Z,27.8217,-97.2040,0.0,0.5,19.0,1.9,'11111222,11111222,11111222' 
TCOON,ioos:station:TCOON:006:1,2013-05-04T03:00:00Z,27.8217,-97.2040,0.0,0.7,18.0,1.6,'11111222,11111222,11111222' 
TCOON,ioos:station:TCOON:006:1,2013-05-04T04:00:00Z,27.8217,-97.2040,0.0,0.9,25.0,1.6,'11111222,11111222,11111222' 
TCOON,ioos:station:TCOON:006:1,2013-05-04T05:00:00Z,27.8217,-97.2040,0.0,2.3,44.0,3.7,'11111222,11111222,11111222' 
TCOON,ioos:station:TCOON:006:1,2013-05-04T06:00:00Z,27.8217,-97.2040,0.0,1.7,45.0,2.3,'11111222,11111222,11111222' 
TCOON,ioos:station:TCOON:006:1,2013-05-04T07:00:00Z,27.8217,-97.2040,0.0,1.1,50.0,1.9,'11111222,11111222,11111222' 
TCOON,ioos:station:TCOON:006:1,2013-05-04T08:00:00Z,27.8217,-97.2040,0.0,1.0,69.0,1.5,'11111222,11111222,11111222' 
TCOON,ioos:station:TCOON:006:1,2013-05-04T09:00:00Z,27.8217,-97.2040,0.0,2.6,172.0,3.4,'11111222,11111222,11111222' 
TCOON,ioos:station:TCOON:006:1,2013-05-04T10:00:00Z,27.8217,-97.2040,0.0,3.1,172.0,3.9,'11111222,11111222,11111222' 
TCOON,ioos:station:TCOON:006:1,2013-05-04T11:00:00Z,27.8217,-97.2040,0.0,4.5,176.0,5.3,'11111222,11111222,11111222' 
TCOON,ioos:station:TCOON:006:1,2013-05-04T12:00:00Z,27.8217,-97.2040,0.0,4.6,195.0,5.5,'11111222,11111222,11111222' 
TCOON,ioos:station:TCOON:006:1,2013-05-04T13:00:00Z,27.8217,-97.2040,0.0,5.2,241.0,6.0,'11111222,11111222,11111222' 
TCOON,ioos:station:TCOON:006:1,2013-05-04T14:00:00Z,27.8217,-97.2040,0.0,5.2,240.0,6.0,'11111222,11111222,11111222' 
TCOON,ioos:station:TCOON:006:1,2013-05-04T15:00:00Z,27.8217,-97.2040,0.0,3.2,222.0,4.0,'11111222,11111222,11111222' 
TCOON,ioos:station:TCOON:006:1,2013-05-04T16:00:00Z,27.8217,-97.2040,0.0,4.8,184.0,5.5,'11111222,11111222,11111222' 
TCOON,ioos:station:TCOON:006:1,2013-05-04T17:00:00Z,27.8217,-97.2040,0.0,4.5,168.0,5.7,'11111222,11111222,11111222' 
TCOON,ioos:station:TCOON:006:1,2013-05-04T18:00:00Z,27.8217,-97.2040,0.0,4.1,162.0,6.3,'11111222,11111222,11111222' 
TCOON,ioos:station:TCOON:006:1,2013-05-04T19:00:00Z,27.8217,-97.2040,0.0,4.0,165.0,5.4,'11111222,11111222,11111222' 
TCOON,ioos:station:TCOON:006:1,2013-05-04T20:00:00Z,27.8217,-97.2040,0.0,4.5,167.0,6.5,'11111222,11111222,11111222' 
TCOON,ioos:station:TCOON:006:1,2013-05-04T21:00:00Z,27.8217,-97.2040,0.0,4.2,171.0,5.7,'11111222,11111222,11111222' 
TCOON,ioos:station:TCOON:006:1,2013-05-04T22:00:00Z,27.8217,-97.2040,0.0,5.9,135.0,7.9,'11111222,11111222,11111222' 
TCOON,ioos:station:TCOON:006:1,2013-05-04T23:00:00Z,27.8217,-97.2040,0.0,5.3,138.0,7.4,'11111222,11111222,11111222' 
TCOON,ioos:station:TCOON:006:1,2013-05-05T00:00:00Z,27.8217,-97.2040,0.0,4.8,148.0,8.6,'11111222,11111222,11111222' 
TCOON,ioos:station:TCOON:006:1,2013-05-05T01:00:00Z,27.8217,-97.2040,0.0,5.4,153.0,7.8,'11111222,11111222,11111222' 
TCOON,ioos:station:TCOON:006:1,2013-05-05T02:00:00Z,27.8217,-97.2040,0.0,5.4,153.0,7.9,'11111222,11111222,11111222' 
TCOON,ioos:station:TCOON:006:1,2013-05-05T03:00:00Z,27.8217,-97.2040,0.0,6.9,162.0,8.4,'11111222,11111222,11111222' 
TCOON,ioos:station:TCOON:006:1,2013-05-05T04:00:00Z,27.8217,-97.2040,0.0,5.8,163.0,7.6,'11111222,11111222,11111222' 
TCOON,ioos:station:TCOON:006:1,2013-05-05T05:00:00Z,27.8217,-97.2040,0.0,5.6,176.0,7.2,'11111222,11111222,11111222' 
TCOON,ioos:station:TCOON:006:1,2013-05-05T06:00:00Z,27.8217,-97.2040,0.0,5.2,177.0,6.9,'11111222,11111222,11111222' 
TCOON,ioos:station:TCOON:006:1,2013-05-05T07:00:00Z,27.8217,-97.2040,0.0,4.7,178.0,7.4,'11111222,11111222,11111222' 
TCOON,ioos:station:TCOON:006:1,2013-05-05T08:00:00Z,27.8217,-97.2040,0.0,4.8,186.0,5.6,'11111222,11111222,11111222' 
TCOON,ioos:station:TCOON:006:1,2013-05-05T09:00:00Z,27.8217,-97.2040,0.0,4.3,213.0,5.8,'11111222,11111222,11111222' 
TCOON,ioos:station:TCOON:006:1,2013-05-05T10:00:00Z,27.8217,-97.2040,0.0,4.5,218.0,5.5,'11111222,11111222,11111222' 
TCOON,ioos:station:TCOON:006:1,2013-05-05T11:00:00Z,27.8217,-97.2040,0.0,4.6,227.0,5.3,'11111222,11111222,11111222' 
TCOON,ioos:station:TCOON:006:1,2013-05-05T12:00:00Z,27.8217,-97.2040,0.0,3.6,239.0,4.1,'11111222,11111222,11111222' 
TCOON,ioos:station:TCOON:006:1,2013-05-05T13:00:00Z,27.8217,-97.2040,0.0,1.3,348.0,2.3,'11111222,11111222,11111222' 
TCOON,ioos:station:TCOON:006:1,2013-05-05T14:00:00Z,27.8217,-97.2040,0.0,2.3,335.0,3.8,'11111222,11111222,11111222' 
TCOON,ioos:station:TCOON:006:1,2013-05-05T15:00:00Z,27.8217,-97.2040,0.0,3.5,302.0,4.9,'11111222,11111222,11111222' 
TCOON,ioos:station:TCOON:006:1,2013-05-05T16:00:00Z,27.8217,-97.2040,0.0,0.9,316.0,4.9,'11111222,11111222,11111222' 
TCOON,ioos:station:TCOON:006:1,2013-05-05T17:00:00Z,27.8217,-97.2040,0.0,2.7,178.0,4.8,'11111222,11111222,11111222' 
TCOON,ioos:station:TCOON:006:1,2013-05-05T18:00:00Z,27.8217,-97.2040,0.0,3.8,169.0,4.9,'11111222,11111222,11111222' 
TCOON,ioos:station:TCOON:006:1,2013-05-05T19:00:00Z,27.8217,-97.2040,0.0,5.1,80.0,7.1,'11111222,11111222,11111222' 
TCOON,ioos:station:TCOON:006:1,2013-05-05T20:00:00Z,27.8217,-97.2040,0.0,3.6,86.0,5.1,'11111222,11111222,11111222' 
TCOON,ioos:station:TCOON:006:1,2013-05-05T21:00:00Z,27.8217,-97.2040,0.0,5.0,107.0,6.7,'11111222,11111222,11111222' 
TCOON,ioos:station:TCOON:006:1,2013-05-05T22:00:00Z,27.8217,-97.2040,0.0,4.1,104.0,5.9,'11111222,11111222,11111222' 
TCOON,ioos:station:TCOON:006:1,2013-05-05T23:00:00Z,27.8217,-97.2040,0.0,3.2,102.0,5.2,'11111222,11111222,11111222' 
TCOON,ioos:station:TCOON:006:1,2013-05-06T00:00:00Z,27.8217,-97.2040,0.0,3.3,100.0,5.0,'11111222,11111222,11111222' 
TCOON,ioos:station:TCOON:006:1,2013-05-06T01:00:00Z,27.8217,-97.2040,0.0,2.7,104.0,4.3,'11111222,11111222,11111222' 
TCOON,ioos:station:TCOON:006:1,2013-05-06T02:00:00Z,27.8217,-97.2040,0.0,3.2,105.0,4.7,'11111222,11111222,11111222' 
TCOON,ioos:station:TCOON:006:1,2013-05-06T03:00:00Z,27.8217,-97.2040,0.0,2.2,117.0,3.2,'11111222,11111222,11111222' 
TCOON,ioos:station:TCOON:006:1,2013-05-06T04:00:00Z,27.8217,-97.2040,0.0,1.9,135.0,2.7,'11111222,11111222,11111222' 
TCOON,ioos:station:TCOON:006:1,2013-05-06T05:00:00Z,27.8217,-97.2040,0.0,2.5,158.0,2.9,'11111222,11111222,11111222' 
TCOON,ioos:station:TCOON:006:1,2013-05-06T06:00:00Z,27.8217,-97.2040,0.0,1.5,134.0,2.3,'11111222,11111222,11111222' 
TCOON,ioos:station:TCOON:006:1,2013-05-06T07:00:00Z,27.8217,-97.2040,0.0,1.9,109.0,2.9,'11111222,11111222,11111222' 
TCOON,ioos:station:TCOON:006:1,2013-05-06T08:00:00Z,27.8217,-97.2040,0.0,1.9,95.0,3.2,'11111222,11111222,11111222' 
TCOON,ioos:station:TCOON:006:1,2013-05-06T09:00:00Z,27.8217,-97.2040,0.0,1.5,85.0,2.8,'11111222,11111222,11111222' 
TCOON,ioos:station:TCOON:006:1,2013-05-06T10:00:00Z,27.8217,-97.2040,0.0,1.6,75.0,2.9,'11111222,11111222,11111222' 
TCOON,ioos:station:TCOON:006:1,2013-05-06T11:00:00Z,27.8217,-97.2040,0.0,1.6,87.0,3.0,'11111222,11111222,11111222' 
TCOON,ioos:station:TCOON:006:1,2013-05-06T12:00:00Z,27.8217,-97.2040,0.0,2.1,82.0,3.4,'11111222,11111222,11111222' 
TCOON,ioos:station:TCOON:006:1,2013-05-06T13:00:00Z,27.8217,-97.2040,0.0,2.5,85.0,3.2,'11111222,11111222,11111222' 
TCOON,ioos:station:TCOON:006:1,2013-05-06T14:00:00Z,27.8217,-97.2040,0.0,2.9,85.0,3.7,'11111222,11111222,11111222' 
TCOON,ioos:station:TCOON:006:1,2013-05-06T15:00:00Z,27.8217,-97.2040,0.0,1.3,128.0,2.2,'11111222,11111222,11111222' 
TCOON,ioos:station:TCOON:006:1,2013-05-06T16:00:00Z,27.8217,-97.2040,0.0,2.6,90.0,2.9,'11111222,11111222,11111222' 
TCOON,ioos:station:TCOON:006:1,2013-05-06T17:00:00Z,27.8217,-97.2040,0.0,4.2,109.0,5.8,'11111222,11111222,11111222' 
TCOON,ioos:station:TCOON:006:1,2013-05-06T18:00:00Z,27.8217,-97.2040,0.0,4.1,119.0,5.7,'11111222,11111222,11111222' 
TCOON,ioos:station:TCOON:006:1,2013-05-06T19:00:00Z,27.8217,-97.2040,0.0,3.4,127.0,4.9,'11111222,11111222,11111222' 
TCOON,ioos:station:TCOON:006:1,2013-05-06T20:00:00Z,27.8217,-97.2040,0.0,3.8,105.0,5.7,'11111222,11111222,11111222' 
TCOON,ioos:station:TCOON:006:1,2013-05-06T21:00:00Z,27.8217,-97.2040,0.0,2.7,122.0,4.9,'11111222,11111222,11111222' 
TCOON,ioos:station:TCOON:006:1,2013-05-06T22:00:00Z,27.8217,-97.2040,0.0,2.4,104.0,4.5,'11111222,11111222,11111222' 
TCOON,ioos:station:TCOON:006:1,2013-05-06T23:00:00Z,27.8217,-97.2040,0.0,4.8,119.0,6.9,'11111222,11111222,11111222' 
TCOON,ioos:station:TCOON:006:1,2013-05-07T00:00:00Z,27.8217,-97.2040,0.0,2.8,151.0,4.6,'11111222,11111222,11111222' 
TCOON,ioos:station:TCOON:006:1,2013-05-07T01:00:00Z,27.8217,-97.2040,0.0,3.6,157.0,5.3,'11111222,11111222,11111222' 
TCOON,ioos:station:TCOON:006:1,2013-05-07T02:00:00Z,27.8217,-97.2040,0.0,3.0,158.0,5.5,'11111222,11111222,11111222' 
TCOON,ioos:station:TCOON:006:1,2013-05-07T03:00:00Z,27.8217,-97.2040,0.0,2.6,158.0,4.6,'11111222,11111222,11111222' 
TCOON,ioos:station:TCOON:006:1,2013-05-07T04:00:00Z,27.8217,-97.2040,0.0,5.2,159.0,6.0,'11111222,11111222,11111222' 
TCOON,ioos:station:TCOON:006:1,2013-05-07T05:00:00Z,27.8217,-97.2040,0.0,3.1,170.0,4.2,'11111222,11111222,11111222' 
TCOON,ioos:station:TCOON:006:1,2013-05-07T06:00:00Z,27.8217,-97.2040,0.0,2.5,164.0,3.1,'11111222,11111222,11111222' 
TCOON,ioos:station:TCOON:006:1,2013-05-07T07:00:00Z,27.8217,-97.2040,0.0,0.8,134.0,1.8,'11111222,11111222,11111222' 
TCOON,ioos:station:TCOON:006:1,2013-05-07T08:00:00Z,27.8217,-97.2040,0.0,0.7,136.0,1.3,'11111222,11111222,11111222' 
TCOON,ioos:station:TCOON:006:1,2013-05-07T09:00:00Z,27.8217,-97.2040,0.0,0.8,137.0,1.3,'11111222,11111222,11111222' 
TCOON,ioos:station:TCOON:006:1,2013-05-07T10:00:00Z,27.8217,-97.2040,0.0,0.5,160.0,1.3,'11111222,11111222,11111222' 
TCOON,ioos:station:TCOON:006:1,2013-05-07T11:00:00Z,27.8217,-97.2040,0.0,0.4,25.0,0.8,'11111222,11111222,11111222' 
TCOON,ioos:station:TCOON:006:1,2013-05-07T12:00:00Z,27.8217,-97.2040,0.0,1.5,130.0,2.5,'11111222,11111222,11111222' 
TCOON,ioos:station:TCOON:006:1,2013-05-07T13:00:00Z,27.8217,-97.2040,0.0,2.6,83.0,3.3,'11111222,11111222,11111222' 
TCOON,ioos:station:TCOON:006:1,2013-05-07T14:00:00Z,27.8217,-97.2040,0.0,2.8,85.0,3.9,'11111222,11111222,11111222' 
TCOON,ioos:station:TCOON:006:1,2013-05-07T15:00:00Z,27.8217,-97.2040,0.0,2.7,93.0,3.9,'11111222,11111222,11111222' 
TCOON,ioos:station:TCOON:006:1,2013-05-07T16:00:00Z,27.8217,-97.2040,0.0,4.0,88.0,5.6,'11111222,11111222,11111222' 
TCOON,ioos:station:TCOON:006:1,2013-05-07T17:00:00Z,27.8217,-97.2040,0.0,3.2,109.0,6.5,'11111222,11111222,11111222' 
TCOON,ioos:station:TCOON:006:1,2013-05-07T18:00:00Z,27.8217,-97.2040,0.0,3.6,122.0,4.7,'11111222,11111222,11111222' 
TCOON,ioos:station:TCOON:006:1,2013-05-07T19:00:00Z,27.8217,-97.2040,0.0,3.0,132.0,5.3,'11111222,11111222,11111222' 
TCOON,ioos:station:TCOON:006:1,2013-05-07T20:00:00Z,27.8217,-97.2040,0.0,4.4,126.0,5.6,'11111222,11111222,11111222' 
TCOON,ioos:station:TCOON:006:1,2013-05-07T21:00:00Z,27.8217,-97.2040,0.0,4.6,128.0,6.1,'11111222,11111222,11111222' 
TCOON,ioos:station:TCOON:006:1,2013-05-07T22:00:00Z,27.8217,-97.2040,0.0,2.8,146.0,5.5,'11111222,11111222,11111222' 
TCOON,ioos:station:TCOON:006:1,2013-05-07T23:00:00Z,27.8217,-97.2040,0.0,3.3,141.0,6.3,'11111222,11111222,11111222' 
TCOON,ioos:station:TCOON:006:1,2013-05-08T00:00:00Z,27.8217,-97.2040,0.0,4.7,131.0,6.4,'11111222,11111222,11111222' 
TCOON,ioos:station:TCOON:006:1,2013-05-08T01:00:00Z,27.8217,-97.2040,0.0,3.1,139.0,5.7,'11111222,11111222,11111222' 
TCOON,ioos:station:TCOON:006:1,2013-05-08T02:00:00Z,27.8217,-97.2040,0.0,3.4,155.0,5.5,'11111222,11111222,11111222' 
TCOON,ioos:station:TCOON:006:1,2013-05-08T03:00:00Z,27.8217,-97.2040,0.0,4.8,158.0,6.2,'11111222,11111222,11111222' 
TCOON,ioos:station:TCOON:006:1,2013-05-08T04:00:00Z,27.8217,-97.2040,0.0,5.9,163.0,8.4,'11111222,11111222,11111222' 
TCOON,ioos:station:TCOON:006:1,2013-05-08T05:00:00Z,27.8217,-97.2040,0.0,5.7,158.0,7.1,'11111222,11111222,11111222' 
TCOON,ioos:station:TCOON:006:1,2013-05-08T06:00:00Z,27.8217,-97.2040,0.0,5.3,157.0,7.0,'11111222,11111222,11111222' 
TCOON,ioos:station:TCOON:006:1,2013-05-08T07:00:00Z,27.8217,-97.2040,0.0,5.0,164.0,6.4,'11111222,11111222,11111222' 
TCOON,ioos:station:TCOON:006:1,2013-05-08T08:00:00Z,27.8217,-97.2040,0.0,5.8,160.0,7.0,'11111222,11111222,11111222' 
TCOON,ioos:station:TCOON:006:1,2013-05-08T09:00:00Z,27.8217,-97.2040,0.0,4.3,155.0,5.9,'11111222,11111222,11111222' 
TCOON,ioos:station:TCOON:006:1,2013-05-08T10:00:00Z,27.8217,-97.2040,0.0,4.0,155.0,6.0,'11111222,11111222,11111222' 
TCOON,ioos:station:TCOON:006:1,2013-05-08T11:00:00Z,27.8217,-97.2040,0.0,3.9,152.0,4.8,'11111222,11111222,11111222' 
TCOON,ioos:station:TCOON:006:1,2013-05-08T12:00:00Z,27.8217,-97.2040,0.0,5.0,150.0,6.3,'11111222,11111222,11111222' 
TCOON,ioos:station:TCOON:006:1,2013-05-08T13:00:00Z,27.8217,-97.2040,0.0,5.6,151.0,7.0,'11111222,11111222,11111222' 
TCOON,ioos:station:TCOON:006:1,2013-05-08T14:00:00Z,27.8217,-97.2040,0.0,4.9,157.0,5.8,'11111222,11111222,11111222' 
TCOON,ioos:station:TCOON:006:1,2013-05-08T15:00:00Z,27.8217,-97.2040,0.0,5.1,149.0,6.3,'11111222,11111222,11111222' 
TCOON,ioos:station:TCOON:006:1,2013-05-08T16:00:00Z,27.8217,-97.2040,0.0,5.9,133.0,7.4,'11111222,11111222,11111222' 
TCOON,ioos:station:TCOON:006:1,2013-05-08T17:00:00Z,27.8217,-97.2040,0.0,6.1,134.0,7.6,'11111222,11111222,11111222' 
TCOON,ioos:station:TCOON:006:1,2013-05-08T18:00:00Z,27.8217,-97.2040,0.0,5.1,121.0,7.4,'11111222,11111222,11111222' 
TCOON,ioos:station:TCOON:006:1,2013-05-08T19:00:00Z,27.8217,-97.2040,0.0,5.4,119.0,8.0,'11111222,11111222,11111222' 
TCOON,ioos:station:TCOON:006:1,2013-05-08T20:00:00Z,27.8217,-97.2040,0.0,6.2,124.0,8.7,'11111222,11111222,11111222' 
TCOON,ioos:station:TCOON:006:1,2013-05-08T21:00:00Z,27.8217,-97.2040,0.0,6.6,124.0,8.5,'11111222,11111222,11111222' 
TCOON,ioos:station:TCOON:006:1,2013-05-08T22:00:00Z,27.8217,-97.2040,0.0,5.4,129.0,8.2,'11111222,11111222,11111222' 
TCOON,ioos:station:TCOON:006:1,2013-05-08T23:00:00Z,27.8217,-97.2040,0.0,5.8,119.0,8.5,'11111222,11111222,11111222' 
TCOON,ioos:station:TCOON:006:1,2013-05-09T00:00:00Z,27.8217,-97.2040,0.0,6.0,123.0,9.2,'11111222,11111222,11111222' 
TCOON,ioos:station:TCOON:006:1,2013-05-09T01:00:00Z,27.8217,-97.2040,0.0,5.2,128.0,7.2,'11111222,11111222,11111222' 
TCOON,ioos:station:TCOON:006:1,2013-05-09T02:00:00Z,27.8217,-97.2040,0.0,7.1,133.0,8.7,'11111222,11111222,11111222' 
TCOON,ioos:station:TCOON:006:1,2013-05-09T03:00:00Z,27.8217,-97.2040,0.0,7.1,134.0,10.3,'11111222,11111222,11111222' 
TCOON,ioos:station:TCOON:006:1,2013-05-09T04:00:00Z,27.8217,-97.2040,0.0,6.4,134.0,8.2,'11111222,11111222,11111222' 
TCOON,ioos:station:TCOON:006:1,2013-05-09T05:00:00Z,27.8217,-97.2040,0.0,4.5,137.0,6.3,'11111222,11111222,11111222' 
TCOON,ioos:station:TCOON:006:1,2013-05-09T06:00:00Z,27.8217,-97.2040,0.0,5.2,132.0,6.6,'11111222,11111222,11111222' 
TCOON,ioos:station:TCOON:006:1,2013-05-09T07:00:00Z,27.8217,-97.2040,0.0,5.1,134.0,8.1,'11111222,11111222,11111222' 
TCOON,ioos:station:TCOON:006:1,2013-05-09T08:00:00Z,27.8217,-97.2040,0.0,5.0,132.0,7.1,'11111222,11111222,11111222' 
TCOON,ioos:station:TCOON:006:1,2013-05-09T09:00:00Z,27.8217,-97.2040,0.0,5.3,133.0,6.4,'11111222,11111222,11111222' 
TCOON,ioos:station:TCOON:006:1,2013-05-09T10:00:00Z,27.8217,-97.2040,0.0,5.4,136.0,7.7,'11111222,11111222,11111222' 
TCOON,ioos:station:TCOON:006:1,2013-05-09T11:00:00Z,27.8217,-97.2040,0.0,4.5,136.0,5.6,'11111222,11111222,11111222' 